Cut Bank, MT

11:43 AM MST on December 06, 2019 (GMT -0700)
Cut Bank Municipal

Weather History for KCTB - August, 2019

Change the Weather History Date:

Tuesday, August 13, 2019

  Actual Average Record
Temperature  
Mean Temperature 62 °F 65 °F  
Max Temperature 77 °F 80 °F 97 °F (1930)
Min Temperature 46 °F 49 °F 35 °F (2005)
Degree Days  
Heating Degree Days 4 3  
Month to date heating degree days 21 30  
Since 1 June heating degree days 336 349  
Since 1 July heating degree days 114 116  
Cooling Degree Days 0 3  
Month to date cooling degree days 42 39  
Year to date cooling degree days 95 128  
Since 1 June cooling degree days 95 126  
Growing Degree Days 12 (Base 50)    
Moisture  
Dew Point 47 °F    
Average Humidity 78    
Maximum Humidity 100    
Minimum Humidity 27    
Precipitation  
Precipitation 0.00 in 0.04 in 0.90 in (1936)
Month to date precipitation 0.90 0.48  
Year to date precipitation 8.31 7.95  
Snow  
Snow - - - ()
Snow Depth 0.00 in    
Sea Level Pressure  
Sea Level Pressure 30.16 in    
Wind  
Wind Speed 5 mph ()    
Max Wind Speed 14 mph    
Max Gust Speed 18 mph    
Visibility 4.7 miles    
Events Fog    
T = Trace of Precipitation, MM = Missing Value Source: Averaged Metar Reports

Daily Weather History Graph

Daily Weather History Graph

Search for Another Location

Airport or City:

Astronomy

Aug. 13, 2019 Rise Set
Actual Time 6:19 AM MDT 8:47 PM MDT
Civil Twilight 5:44 AM MDT 9:22 PM MDT
Nautical Twilight 5:00 AM MDT 10:06 PM MDT
Astronomical Twilight 4:09 AM MDT 10:57 PM MDT
Moon 8:14 PM MDT (8/13) 4:14 AM MDT (8/13)
Length of Visible Light 15h 38m
Length of Day
14h 28m
Waxing Gibbous, 97% of the Moon is Illuminated
Aug 13
Waxing Gibbous
Aug 15
Full
Aug 23
Last Quarter
Aug 30
New
Sep 5
First Quarter

Hourly Weather History & Observations

Time (MDT) Temp. Dew Point Humidity Pressure Visibility Wind Dir Wind Speed Gust Speed Precip Events Conditions
12:56 AM 50.0 °F 48.0 °F 93% 30.14 in 10.0 mi North 4.6 mph - N/A   Clear
1:56 AM 48.0 °F 46.9 °F 96% 30.15 in 8.0 mi North 4.6 mph - N/A   Clear
2:04 AM 48.0 °F 46.9 °F 96% 30.18 in 1.5 mi NNW 6.9 mph - N/A   Partly Cloudy
2:06 AM 48.0 °F 46.0 °F 93% 30.18 in 0.8 mi North 8.1 mph - N/A   Mist
2:21 AM 48.9 °F 48.0 °F 97% 30.18 in 1.0 mi NNW 8.1 mph - N/A   Mist
2:26 AM 48.9 °F 48.0 °F 97% 30.18 in 3.0 mi NNW 6.9 mph - N/A   Mostly Cloudy
2:30 AM 48.9 °F 48.0 °F 97% 30.18 in 1.5 mi NNW 6.9 mph - N/A   Mostly Cloudy
2:35 AM 48.9 °F 48.0 °F 97% 30.18 in 0.8 mi NNW 8.1 mph - N/A   Mist
2:45 AM 48.0 °F 46.9 °F 96% 30.17 in 1.8 mi NNW 6.9 mph - N/A   Scattered Clouds
2:52 AM 48.2 °F 46.4 °F 93% 30.17 in 3.0 mi NW 4.6 mph - N/A   Scattered Clouds
2:56 AM 46.9 °F 46.9 °F 100% 30.15 in 3.0 mi NW 3.5 mph - N/A   Scattered Clouds
3:01 AM 46.9 °F 46.0 °F 97% 30.17 in 1.5 mi Variable 4.6 mph - N/A   Scattered Clouds
3:03 AM 46.9 °F 46.0 °F 97% 30.17 in 0.8 mi SW 5.8 mph - N/A   Mist
3:15 AM 46.9 °F 46.0 °F 97% 30.18 in 0.2 mi WSW 4.6 mph - N/A Fog Fog
3:40 AM 48.0 °F 46.9 °F 96% 30.18 in 0.5 mi NNE 4.6 mph - N/A Fog Fog
3:56 AM 48.0 °F 46.9 °F 96% 30.16 in 0.2 mi NNW 4.6 mph - N/A Fog Fog
4:13 AM 48.0 °F 46.0 °F 93% 30.18 in 0.2 mi North 6.9 mph - N/A Fog Fog
4:56 AM 48.0 °F 46.9 °F 96% 30.17 in 0.2 mi WSW 5.8 mph - N/A Fog Fog
5:56 AM 48.9 °F 46.9 °F 93% 30.17 in 0.2 mi Calm Calm - N/A Fog Fog
6:17 AM 48.0 °F 46.9 °F 96% 30.20 in 0.5 mi NW 3.5 mph - N/A Fog Fog
6:26 AM 48.0 °F 46.9 °F 96% 30.20 in 0.2 mi WNW 3.5 mph - N/A Fog Fog
6:56 AM 48.0 °F 46.9 °F 96% 30.18 in 0.2 mi West 3.5 mph - N/A Fog Fog
7:56 AM 48.9 °F 48.0 °F 97% 30.18 in 0.2 mi NW 3.5 mph - N/A Fog Fog
8:56 AM 50.0 °F 48.9 °F 96% 30.19 in 0.2 mi Calm Calm - N/A Fog Fog
9:29 AM 52.0 °F 51.1 °F 97% 30.21 in 0.2 mi Calm Calm - N/A Fog Fog
9:56 AM 53.1 °F 52.0 °F 96% 30.19 in 3.0 mi Calm Calm - N/A   Overcast
10:35 AM 57.9 °F 52.0 °F 81% 30.21 in 10.0 mi NE 4.6 mph - N/A   Scattered Clouds
10:56 AM 60.1 °F 52.0 °F 75% 30.18 in 10.0 mi Calm Calm - N/A   Clear
11:56 AM 66.0 °F 48.0 °F 52% 30.17 in 10.0 mi South 5.8 mph - N/A   Clear
12:56 PM 69.1 °F 44.1 °F 40% 30.16 in 10.0 mi Variable 5.8 mph - N/A   Clear
1:56 PM 72.0 °F 43.0 °F 35% 30.15 in 10.0 mi Calm Calm - N/A   Clear
2:56 PM 72.0 °F 42.1 °F 34% 30.14 in 10.0 mi West 3.5 mph - N/A   Clear
3:56 PM 75.0 °F 41.0 °F 29% 30.12 in 10.0 mi Calm Calm - N/A   Mostly Cloudy
4:56 PM 75.9 °F 39.9 °F 27% 30.10 in 10.0 mi Variable 5.8 mph - N/A   Clear
5:56 PM 75.9 °F 42.1 °F 30% 30.10 in 10.0 mi North - - N/A   Clear
6:56 PM 72.0 °F 45.0 °F 38% 30.12 in 10.0 mi ENE 11.5 mph - N/A   Clear
7:56 PM 70.0 °F 46.0 °F 42% 30.12 in 10.0 mi East 8.1 mph - N/A   Clear
8:56 PM 64.0 °F 46.9 °F 54% 30.14 in 10.0 mi ENE 6.9 mph - N/A   Clear
9:56 PM 62.1 °F 46.0 °F 56% 30.15 in 10.0 mi East 8.1 mph - N/A   Clear
10:56 PM 60.1 °F 46.0 °F 60% 30.15 in 10.0 mi SE 4.6 mph - N/A   Clear
11:56 PM 59.0 °F 45.0 °F 60% 30.14 in 10.0 mi Calm Calm - N/A   Clear